WetterOnline ( https://www.wetteronline.de )

Wetter aktuell Rubihorn

Aktuelles Wetter: Kempten (705m)

6-stündlich | Neueste Meldungen
Ortszeit Temperatur Wetter
So, 25.09. 8:00 8.6° C bewölkt
So, 25.09. 2:00 8.7° C Nebel
Sa, 24.09. 20:00 11.8° C bedeckt
Sa, 24.09. 14:00 14.6° C wolkig
Sa, 24.09. 8:00 10.4° C bedeckt
Sa, 24.09. 2:00 10.0° C wolkig
Fr, 23.09. 20:00 12.4° C wolkig
Fr, 23.09. 14:00 16.5° C wolkig
Ortszeit Temperatur Wetter
So, 25.09. 10:00 11.0° C wolkig
So, 25.09. 9:50 11.0° C wolkig
So, 25.09. 9:40 10.4° C bedeckt
So, 25.09. 9:30 9.6° C wolkig
So, 25.09. 9:20 9.6° C wolkig
So, 25.09. 9:10 9.4° C bedeckt
So, 25.09. 9:00 9.4° C bewölkt
So, 25.09. 8:30 8.9° C bewölkt
So, 25.09. 8:00 8.6° C bewölkt
So, 25.09. 7:30 8.3° C bewölkt
So, 25.09. 7:00 8.3° C bewölkt
Ortszeit Relative Feuchte Sichtweite
So, 25.09. 8:00 97% 21 km
So, 25.09. 2:00 100% 100 m
Sa, 24.09. 20:00 95% 7 km
Sa, 24.09. 14:00 74% 65 km
Sa, 24.09. 8:00 93% 30 km
Sa, 24.09. 2:00 84% 60 km
Fr, 23.09. 20:00 81% 30 km
Fr, 23.09. 14:00 55% 50 km
Ortszeit Relative Feuchte Sichtweite
So, 25.09. 10:00 84% 45 km
So, 25.09. 9:50 84% -
So, 25.09. 9:40 89% -
So, 25.09. 9:30 94% 26 km
So, 25.09. 9:20 94% -
So, 25.09. 9:10 93% -
So, 25.09. 9:00 96% 25 km
So, 25.09. 8:30 96% 40 km
So, 25.09. 8:00 97% 21 km
So, 25.09. 7:30 98% 21 km
So, 25.09. 7:00 97% 16 km
Ortszeit Niederschlagsmenge Niederschlagsart
So, 25.09. 8:00 0.1 l/m2 in 12 Std. -
So, 25.09. 2:00 0.1 l/m2 in 6 Std. Regen
Sa, 24.09. 20:00 3 l/m2 in 12 Std. Regen
Sa, 24.09. 14:00 2 l/m2 in 6 Std. Regen
Sa, 24.09. 8:00 0.5 l/m2 in 12 Std. Regen
Sa, 24.09. 2:00 0.0 l/m2 in 6 Std. -
Fr, 23.09. 20:00 0.0 l/m2 in 12 Std. -
Fr, 23.09. 14:00 0.0 l/m2 in 6 Std. -
Ortszeit Niederschlagsmenge Niederschlagsart
So, 25.09. 10:00 0.0 l/m2 in 1 Std. -
So, 25.09. 9:50 keine Meldung -
So, 25.09. 9:40 keine Meldung -
So, 25.09. 9:30 0.0 l/m2 in 1 Std. -
So, 25.09. 9:20 keine Meldung -
So, 25.09. 9:10 keine Meldung -
So, 25.09. 9:00 0.0 l/m2 in 1 Std. -
So, 25.09. 8:30 0.0 l/m2 in 1 Std. -
So, 25.09. 8:00 0.0 l/m2 in 1 Std. -
So, 25.09. 7:30 0.0 l/m2 in 1 Std. -
So, 25.09. 7:00 0.0 l/m2 in 1 Std. -
Ortszeit Stärke Spitze Richtung
km/h Bft. km/h Grad Sektor
So, 25.09. 8:00 4 1 11 110° O
So, 25.09. 2:00 7 2 11 110° O
Sa, 24.09. 20:00 4 1 11 100° O
Sa, 24.09. 14:00 4 1 14 280° W
Sa, 24.09. 8:00 6 1 13 130° SO
Sa, 24.09. 2:00 6 1 13 130° SO
Fr, 23.09. 20:00 2 1 33 100° O
Fr, 23.09. 14:00 14 3 36 230° SW
Ortszeit Stärke Spitze Richtung
km/h Bft. km/h Grad Sektor
So, 25.09. 10:00 2 1 6 220° SW
So, 25.09. 9:50 2 1 - 220° SW
So, 25.09. 9:40 2 1 - 240° SW
So, 25.09. 9:30 2 1 6 250° W
So, 25.09. 9:20 2 1 - 250° W
So, 25.09. 9:10 2 1 - 120° SO
So, 25.09. 9:00 4 1 7 100° O
So, 25.09. 8:30 4 1 7 80° O
So, 25.09. 8:00 4 1 11 110° O
So, 25.09. 7:30 7 2 11 110° O
So, 25.09. 7:00 7 2 11 120° SO
Ortszeit Untergrenze Bedeckung Gattung
total tief tief mittel hoch
So, 25.09. 8:00 2400 m 8/8 6/8 - - -
So, 25.09. 2:00 <30 m 8/8 0/8 - - -
Sa, 24.09. 20:00 1260 m 8/8 8/8 - - -
Sa, 24.09. 14:00 540 m 7/8 3/8 - - -
Sa, 24.09. 8:00 1440 m 8/8 8/8 - - -
Sa, 24.09. 2:00 1170 m 8/8 2/8 - - -
Fr, 23.09. 20:00 5400 m 8/8 1/8 - - -
Fr, 23.09. 14:00 5700 m 8/8 8/8 - - -
Ortszeit Bedeckungsgrad in Achtel und Wolkenuntergrenze
So, 25.09. 10:00 1(120m) 8(3300m) 8(4800m)
So, 25.09. 9:50 1(120m) 8(3300m) 8(4800m)
So, 25.09. 9:40 8
So, 25.09. 9:30 3(1380m) 8(3300m) 8(4500m)
So, 25.09. 9:20 3(1380m) 8(3300m) 8(4500m)
So, 25.09. 9:10 8
So, 25.09. 9:00 7(1260m) 8(3300m) 8(4500m)
So, 25.09. 8:30 1(1800m) 7(2700m) 8(3300m)
So, 25.09. 8:00 6(2400m) 8(3300m)
So, 25.09. 7:30 5(1800m) 5(2400m) 8(3300m)
So, 25.09. 7:00 3(1500m) 7(2400m) 8(3000m)
Ortszeit Luftdruck NN (hPa) Tendenz (hPa in 3 Std.)
So, 25.09. 8:00 1013 - 0,5
So, 25.09. 2:00 1014 - 0,3
Sa, 24.09. 20:00 1013 - 0,1
Sa, 24.09. 14:00 1013 - 0,4
Sa, 24.09. 8:00 1014 - 0,6
Sa, 24.09. 2:00 1016 - 0,4
Fr, 23.09. 20:00 1016 - 0,2
Fr, 23.09. 14:00 1017 - 0,9
Ortszeit Luftdruck NN (hPa) Tendenz (hPa in 3 Std.)
So, 25.09. 10:00 1012 0,0
So, 25.09. 9:50 1012 keine Meldung
So, 25.09. 9:40 1013 keine Meldung
So, 25.09. 9:30 1013 + 0,2
So, 25.09. 9:20 1013 keine Meldung
So, 25.09. 9:10 1013 keine Meldung
So, 25.09. 9:00 1013 + 0,1
So, 25.09. 8:30 1013 - 0,1
So, 25.09. 8:00 1013 - 0,5
So, 25.09. 7:30 1013 - 0,6
So, 25.09. 7:00 1013 - 0,5
Ortszeit Schneehöhe (cm)
So, 25.09. 8:00 0
So, 25.09. 2:00 0
Sa, 24.09. 20:00 0
Sa, 24.09. 14:00 0
Sa, 24.09. 8:00 0
Sa, 24.09. 2:00 0
Fr, 23.09. 20:00 0
Fr, 23.09. 14:00 0
Ortszeit Schneehöhe (cm)
So, 25.09. 10:00 0
So, 25.09. 9:50 0
So, 25.09. 9:40 0
So, 25.09. 9:30 0
So, 25.09. 9:20 0
So, 25.09. 9:10 0
So, 25.09. 9:00 0
So, 25.09. 8:30 0
So, 25.09. 8:00 0
So, 25.09. 7:30 0
So, 25.09. 7:00 0
Link zu dieser Seite / Seite empfehlen

Das Wetter in ...